Location: Newark
(27.2452°N, 107.0032°W)
Time: 01:31:05
(UTC+00:00)

Hubble Space Telescope - Pass Details

Date: 23 December 2019
Orbit: 536 x 540 km, 28.5° (Epoch: 18 January)

Event Time Altitude Azimuth Distance (km) Brightness Sun altitude
Exits shadow 13:17:18 - 269° (W) 1,891 3.0 -8.4°
Reaches altitude 10° 13:17:36 10° 267° (W) 1,784 2.9 -8.3°
Maximum altitude 13:21:23 35° 201° (SSW) 874 1.9 -7.5°
Drops below altitude 10° 13:25:09 10° 135° (SE) 1,781 4.7 -6.7°
Sets 13:27:33 0° 126° (SE) 2,671 6.3 -6.3°
